GFSSE_prec_precacc_102.txt.gz
Total_Precipitation_Accumulation
0.55 0.14 0.17 0.28 0.15 0.14 0.08 0.04 0.03 0.06 0.09 0.05 0.04 0.04 0.01 0.01 0.03 0.03 0.02 0.03 0.03 0.07 0.04 0.01 0.02 0.05 0.10 0.06 0.04 0.06 0.08 0.09 0.08 0.18 0.39 0.29 0.32 0.20 0.22 0.37 0.26 0.42 0.47
0.72 0.40 0.56 0.31 0.12 0.15 0.16 0.08 0.04 0.06 0.07 0.04 0.03 0.02 0.01 0.00 0.02 0.02 0.01 0.02 0.03 0.11 0.04 0.02 0.02 0.04 0.08 0.03 0.02 0.03 0.02 0.07 0.08 0.13 0.29 0.38 0.36 0.23 0.23 0.27 0.25 0.42 0.49
1.63 0.97 0.87 0.94 0.30 0.22 0.19 0.12 0.06 0.02 0.01 0.02 0.01 0.00 0.00 0.00 0.00 0.01 0.01 0.03 0.03 0.14 0.07 0.02 0.03 0.07 0.05 0.03 0.02 0.01 0.01 0.03 0.06 0.11 0.23 0.20 0.19 0.35 0.34 0.24 0.22 0.29 0.35
0.41 0.57 0.75 1.19 0.97 0.80 0.62 0.22 0.12 0.08 0.05 0.01 0.02 0.01 0.01 0.01 0.01 0.02 0.01 0.01 0.06 0.14 0.12 0.10 0.10 0.10 0.05 0.02 0.01 0.00 0.01 0.03 0.06 0.09 0.15 0.12 0.17 0.40 0.42 0.23 0.21 0.24 0.38
0.35 0.31 0.76 1.18 1.33 0.83 0.99 0.67 0.43 0.38 0.16 0.07 0.12 0.05 0.02 0.01 0.05 0.12 0.16 0.20 0.27 0.26 0.17 0.18 0.12 0.08 0.03 0.00 0.00 0.00 0.00 0.02 0.02 0.02 0.10 0.18 0.46 0.75 0.38 0.27 0.18 0.17 0.25
1.14 0.91 1.64 2.05 1.48 1.03 0.94 1.15 2.03 1.84 1.26 0.97 0.62 0.39 0.20 0.28 0.39 0.43 0.41 0.38 0.41 0.39 0.23 0.21 0.14 0.06 0.01 0.00 0.00 0.00 0.00 0.00 0.02 0.00 0.07 0.39 0.43 0.90 1.07 0.32 0.22 0.24 0.21
2.76 2.23 2.19 3.00 2.30 1.62 1.11 1.36 2.02 3.37 3.89 3.33 2.30 1.32 1.46 1.57 1.38 1.11 0.70 0.56 0.51 0.51 0.48 0.33 0.21 0.14 0.01 0.00 0.00 0.00 0.00 0.01 0.01 0.00 0.15 0.53 1.17 0.88 1.15 0.90 0.26 0.24 0.23
5.81 6.52 4.51 4.60 5.14 3.94 2.54 1.24 1.45 2.05 3.30 3.36 3.45 3.18 2.92 2.43 1.59 1.23 0.75 0.58 0.53 0.51 0.44 0.43 0.26 0.22 0.07 0.03 0.05 0.00 0.00 0.00 0.00 0.03 0.09 0.38 0.88 0.54 0.38 0.39 0.21 0.15 0.12
6.86 10.03 10.33 6.89 6.24 5.55 6.20 3.91 1.58 1.50 1.65 2.05 2.15 2.12 2.48 2.87 1.94 1.42 0.89 0.66 0.69 0.70 0.37 0.30 0.17 0.20 0.18 0.13 0.02 0.00 0.00 0.00 0.00 0.01 0.02 0.06 0.09 0.19 0.30 0.28 0.23 0.17 0.13
7.50 6.57 6.82 5.47 4.75 4.34 4.46 5.06 3.46 2.30 1.97 1.75 1.67 1.55 1.50 2.06 1.96 1.35 0.84 0.64 0.74 0.67 0.48 0.31 0.27 0.33 0.23 0.14 0.04 0.00 0.00 0.00 0.00 0.00 0.00 0.01 0.07 0.14 0.31 0.31 0.21 0.19 0.19
3.50 3.96 3.54 2.44 1.70 1.94 2.04 2.50 3.09 3.09 2.51 2.53 2.73 1.89 1.39 1.29 1.74 1.35 0.94 0.60 0.62 0.68 0.56 0.42 0.38 0.42 0.29 0.15 0.05 0.00 0.00 0.00 0.00 0.00 0.00 0.02 0.05 0.09 0.12 0.22 0.21 0.14 0.19
2.08 1.80 1.28 0.80 0.43 0.47 0.60 0.76 1.26 2.04 2.39 2.12 3.44 2.33 1.91 1.07 1.14 1.04 1.12 0.74 0.64 0.86 0.62 0.66 0.54 0.41 0.26 0.10 0.04 0.01 0.01 0.00 0.00 0.00 0.00 0.02 0.03 0.03 0.03 0.03 0.07 0.15 0.23
0.85 0.81 0.74 0.52 0.30 0.33 0.26 0.31 0.48 1.12 1.94 2.19 2.31 2.14 2.14 1.17 1.30 1.05 1.13 0.91 0.77 1.17 0.78 0.73 0.57 0.33 0.16 0.09 0.04 0.04 0.03 0.00 0.00 0.00 0.00 0.02 0.04 0.03 0.03 0.02 0.02 0.04 0.10
0.45 0.47 0.32 0.35 0.36 0.51 0.36 0.25 0.30 0.72 1.50 1.71 1.34 1.11 1.48 0.97 0.94 0.97 0.74 0.71 0.62 1.09 0.72 0.49 0.34 0.20 0.14 0.10 0.04 0.03 0.00 0.00 0.00 0.00 0.00 0.02 0.04 0.04 0.02 0.03 0.03 0.03 0.04
0.30 0.41 0.39 0.18 0.25 0.23 0.23 0.24 0.23 0.58 0.81 1.09 0.97 0.38 0.98 0.76 0.54 0.88 0.68 0.64 0.46 0.97 0.55 0.31 0.29 0.21 0.10 0.08 0.04 0.01 0.00 0.00 0.00 0.00 0.00 0.01 0.03 0.04 0.03 0.03 0.03 0.03 0.02
0.26 0.39 0.47 0.41 0.35 0.30 0.23 0.31 0.30 0.46 0.81 0.73 0.88 0.36 0.24 0.36 0.51 0.89 0.80 0.71 0.44 0.64 0.50 0.41 0.24 0.21 0.09 0.05 0.03 0.00 0.00 0.00 0.00 0.00 0.00 0.01 0.02 0.02 0.03 0.04 0.03 0.02 0.02
0.07 0.22 0.62 1.02 0.50 0.34 0.28 0.31 0.34 0.25 0.45 0.67 0.78 0.53 0.22 0.12 0.25 0.45 0.66 0.52 0.49 0.49 0.41 0.54 0.49 0.27 0.10 0.05 0.02 0.00 0.00 0.00 0.00 0.00 0.00 0.00 0.01 0.01 0.03 0.04 0.03 0.02 0.01
0.04 0.12 0.66 1.27 0.93 0.48 0.27 0.32 0.37 0.47 0.44 0.54 0.59 0.55 0.30 0.21 0.18 0.19 0.37 0.62 0.48 0.49 0.32 0.33 0.47 0.32 0.12 0.04 0.02 0.00 0.00 0.00 0.00 0.00 0.00 0.00 0.00 0.01 0.02 0.03 0.02 0.02 0.01
0.04 0.17 0.50 0.80 1.08 0.97 0.76 0.71 0.56 0.47 0.53 0.50 0.41 0.44 0.31 0.26 0.27 0.18 0.26 0.37 0.65 0.42 0.33 0.41 0.36 0.33 0.12 0.03 0.01 0.00 0.00 0.00 0.00 0.00 0.00 0.00 0.00 0.00 0.01 0.01 0.01 0.01 0.01
0.08 0.32 0.58 0.72 1.21 1.58 0.87 0.35 0.41 0.64 0.53 0.48 0.32 0.37 0.44 0.32 0.41 0.35 0.31 0.25 0.32 0.48 0.40 0.47 0.54 0.33 0.17 0.03 0.01 0.00 0.00 0.00 0.00 0.00 0.00 0.00 0.00 0.00 0.00 0.01 0.00 0.00 0.00
0.18 0.42 0.64 1.00 0.97 0.47 0.23 0.14 0.26 0.46 0.59 0.52 0.39 0.30 0.52 0.56 0.53 0.64 0.55 0.58 0.38 0.17 0.34 0.26 0.51 0.44 0.22 0.03 0.01 0.00 0.00 0.00 0.00 0.00 0.00 0.00 0.00 0.00 0.00 0.00 0.00 0.00 0.00
0.44 0.44 0.33 0.15 0.13 0.04 0.06 0.08 0.11 0.21 0.41 0.41 0.34 0.18 0.34 0.58 0.81 0.63 0.57 0.73 0.69 0.35 0.14 0.16 0.29 0.38 0.22 0.04 0.01 0.00 0.02 0.01 0.01 0.00 0.00 0.00 0.00 0.01 0.00 0.00 0.00 0.00 0.00
0.05 0.02 0.06 0.08 0.14 0.05 0.04 0.05 0.09 0.27 0.42 0.34 0.38 0.23 0.22 0.29 0.60 0.81 0.71 0.64 0.71 0.44 0.17 0.09 0.09 0.09 0.07 0.05 0.04 0.05 0.13 0.12 0.07 0.01 0.01 0.01 0.02 0.01 0.01 0.01 0.01 0.01 0.00
0.02 0.03 0.06 0.12 0.15 0.05 0.02 0.03 0.04 0.13 0.23 0.24 0.21 0.18 0.14 0.19 0.28 0.56 0.81 0.67 0.63 0.68 0.48 0.16 0.07 0.06 0.08 0.11 0.12 0.11 0.17 0.19 0.21 0.19 0.05 0.01 0.02 0.03 0.02 0.01 0.03 0.05 0.05
0.04 0.07 0.08 0.12 0.16 0.08 0.02 0.07 0.14 0.16 0.19 0.23 0.19 0.14 0.11 0.11 0.17 0.24 0.46 0.59 0.55 0.50 0.49 0.36 0.26 0.23 0.28 0.36 0.32 0.22 0.17 0.24 0.29 0.23 0.18 0.12 0.04 0.03 0.04 0.04 0.05 0.08 0.14
0.05 0.08 0.10 0.13 0.19 0.10 0.07 0.08 0.14 0.18 0.16 0.15 0.11 0.10 0.07 0.09 0.13 0.15 0.25 0.31 0.44 0.53 0.62 0.70 0.69 0.58 0.43 0.49 0.53 0.46 0.25 0.24 0.26 0.24 0.18 0.12 0.18 0.12 0.08 0.14 0.20 0.15 0.15

GFSSE_prec_precacc_105.txt.gz
Total_Precipitation_Accumulation
0.55 0.14 0.17 0.28 0.15 0.14 0.08 0.04 0.03 0.06 0.09 0.05 0.04 0.04 0.01 0.01 0.03 0.03 0.02 0.03 0.03 0.07 0.05 0.02 0.02 0.06 0.11 0.06 0.04 0.06 0.08 0.09 0.09 0.19 0.41 0.32 0.33 0.21 0.27 0.46 0.31 0.43 0.48
0.72 0.40 0.56 0.31 0.12 0.15 0.16 0.08 0.04 0.06 0.07 0.04 0.03 0.02 0.01 0.00 0.02 0.02 0.01 0.02 0.03 0.12 0.05 0.02 0.02 0.04 0.08 0.03 0.03 0.03 0.02 0.07 0.08 0.13 0.29 0.41 0.38 0.23 0.25 0.36 0.26 0.42 0.50
1.63 0.97 0.87 0.94 0.30 0.22 0.19 0.12 0.06 0.02 0.01 0.02 0.01 0.00 0.01 0.00 0.01 0.01 0.01 0.03 0.04 0.15 0.08 0.03 0.04 0.10 0.06 0.04 0.03 0.01 0.01 0.03 0.07 0.15 0.34 0.27 0.22 0.37 0.35 0.24 0.22 0.29 0.35
0.41 0.57 0.75 1.19 0.97 0.80 0.62 0.22 0.12 0.08 0.05 0.01 0.02 0.02 0.02 0.01 0.01 0.04 0.02 0.01 0.11 0.24 0.18 0.16 0.19 0.16 0.06 0.03 0.02 0.00 0.01 0.03 0.07 0.12 0.30 0.24 0.21 0.44 0.42 0.23 0.21 0.24 0.38
0.35 0.31 0.76 1.18 1.33 0.83 0.99 0.67 0.43 0.38 0.16 0.07 0.12 0.05 0.02 0.02 0.13 0.24 0.21 0.21 0.37 0.41 0.37 0.36 0.26 0.15 0.05 0.00 0.00 0.00 0.00 0.03 0.04 0.07 0.26 0.31 0.48 0.77 0.40 0.28 0.18 0.17 0.25
1.14 0.91 1.64 2.05 1.48 1.03 0.94 1.15 2.03 1.84 1.26 0.97 0.62 0.39 0.20 0.33 0.48 0.47 0.45 0.43 0.47 0.54 0.39 0.36 0.38 0.20 0.02 0.00 0.00 0.00 0.00 0.00 0.05 0.02 0.12 0.44 0.47 0.92 1.09 0.33 0.22 0.24 0.21
2.76 2.23 2.19 3.00 2.30 1.62 1.11 1.36 2.02 3.37 3.89 3.34 2.31 1.32 1.53 1.73 1.40 1.11 0.70 0.56 0.51 0.52 0.54 0.43 0.30 0.20 0.07 0.03 0.08 0.04 0.00 0.02 0.04 0.06 0.16 0.53 1.19 0.90 1.16 0.91 0.26 0.24 0.23
5.81 6.52 4.51 4.60 5.14 3.94 2.54 1.24 1.45 2.05 3.30 3.36 3.47 3.29 3.10 2.50 1.59 1.23 0.75 0.58 0.53 0.51 0.44 0.46 0.32 0.29 0.14 0.23 0.18 0.10 0.09 0.04 0.02 0.05 0.10 0.38 0.88 0.55 0.39 0.39 0.22 0.16 0.12
6.86 10.03 10.33 6.89 6.24 5.55 6.20 3.91 1.58 1.50 1.65 2.05 2.17 2.15 2.50 2.88 1.94 1.42 0.89 0.66 0.69 0.70 0.37 0.32 0.21 0.27 0.30 0.28 0.10 0.08 0.04 0.01 0.00 0.02 0.02 0.06 0.09 0.20 0.31 0.28 0.24 0.17 0.13
7.50 6.57 6.82 5.47 4.75 4.34 4.46 5.06 3.46 2.30 1.97 1.75 1.69 1.56 1.50 2.07 1.96 1.35 0.84 0.64 0.74 0.67 0.48 0.34 0.40 0.53 0.45 0.27 0.11 0.04 0.02 0.00 0.00 0.00 0.00 0.01 0.08 0.15 0.32 0.31 0.21 0.19 0.19
3.50 3.96 3.54 2.44 1.70 1.94 2.04 2.50 3.09 3.09 2.51 2.53 2.74 1.90 1.42 1.36 1.80 1.36 0.94 0.60 0.63 0.69 0.58 0.46 0.53 0.62 0.46 0.31 0.18 0.07 0.01 0.00 0.00 0.00 0.00 0.02 0.06 0.10 0.12 0.22 0.21 0.14 0.19
2.08 1.80 1.28 0.80 0.43 0.47 0.60 0.76 1.27 2.04 2.40 2.14 3.45 2.34 1.93 1.09 1.19 1.07 1.13 0.76 0.68 0.88 0.65 0.70 0.59 0.46 0.35 0.24 0.15 0.08 0.03 0.00 0.00 0.00 0.00 0.02 0.03 0.03 0.03 0.03 0.07 0.15 0.23
0.85 0.81 0.74 0.52 0.30 0.33 0.26 0.31 0.49 1.13 1.96 2.22 2.38 2.21 2.21 1.25 1.37 1.08 1.18 0.93 0.80 1.21 0.80 0.76 0.59 0.42 0.26 0.23 0.18 0.09 0.13 0.01 0.00 0.00 0.00 0.02 0.04 0.03 0.03 0.02 0.03 0.04 0.10
0.45 0.47 0.32 0.35 0.36 0.51 0.36 0.25 0.30 0.72 1.51 1.72 1.37 1.15 1.54 1.04 1.02 1.02 0.79 0.75 0.65 1.12 0.74 0.54 0.37 0.31 0.31 0.29 0.24 0.13 0.05 0.00 0.00 0.00 0.00 0.02 0.05 0.04 0.03 0.03 0.04 0.03 0.05
0.30 0.41 0.39 0.18 0.25 0.23 0.23 0.24 0.23 0.58 0.82 1.10 0.98 0.39 1.00 0.80 0.57 0.90 0.71 0.66 0.48 1.02 0.61 0.34 0.39 0.31 0.32 0.30 0.28 0.16 0.02 0.00 0.00 0.00 0.00 0.02 0.05 0.04 0.03 0.04 0.04 0.04 0.03
0.26 0.39 0.47 0.41 0.35 0.30 0.23 0.31 0.30 0.46 0.82 0.74 0.89 0.37 0.25 0.39 0.53 0.90 0.81 0.71 0.46 0.71 0.58 0.47 0.31 0.39 0.35 0.44 0.21 0.11 0.01 0.00 0.00 0.00 0.00 0.01 0.03 0.03 0.04 0.05 0.05 0.03 0.03
0.07 0.22 0.62 1.02 0.50 0.34 0.28 0.31 0.34 0.25 0.45 0.67 0.78 0.53 0.23 0.12 0.28 0.48 0.69 0.54 0.52 0.59 0.48 0.61 0.56 0.44 0.42 0.50 0.19 0.06 0.00 0.00 0.00 0.00 0.00 0.01 0.02 0.02 0.04 0.05 0.05 0.03 0.02
0.04 0.12 0.66 1.27 0.93 0.48 0.27 0.32 0.37 0.47 0.44 0.54 0.60 0.56 0.30 0.21 0.21 0.24 0.41 0.66 0.52 0.57 0.35 0.40 0.65 0.48 0.37 0.33 0.15 0.04 0.00 0.00 0.00 0.00 0.00 0.00 0.01 0.01 0.02 0.03 0.03 0.02 0.03
0.04 0.17 0.50 0.80 1.08 0.97 0.76 0.71 0.56 0.47 0.53 0.50 0.41 0.45 0.31 0.26 0.28 0.21 0.29 0.39 0.67 0.44 0.35 0.45 0.55 0.60 0.34 0.26 0.13 0.03 0.00 0.00 0.00 0.00 0.00 0.00 0.00 0.00 0.01 0.02 0.02 0.01 0.01
0.08 0.32 0.58 0.72 1.21 1.58 0.87 0.35 0.41 0.64 0.53 0.48 0.32 0.37 0.45 0.32 0.43 0.39 0.35 0.26 0.32 0.49 0.43 0.58 0.69 0.62 0.43 0.22 0.11 0.04 0.01 0.00 0.00 0.00 0.00 0.00 0.00 0.00 0.00 0.01 0.01 0.00 0.01
0.18 0.42 0.64 1.00 0.97 0.47 0.23 0.14 0.26 0.46 0.59 0.53 0.39 0.30 0.52 0.56 0.55 0.68 0.61 0.58 0.38 0.18 0.38 0.47 0.81 0.78 0.52 0.26 0.11 0.06 0.05 0.02 0.00 0.00 0.00 0.00 0.00 0.00 0.00 0.01 0.00 0.00 0.00
0.44 0.44 0.33 0.15 0.13 0.04 0.06 0.08 0.11 0.21 0.41 0.41 0.34 0.18 0.34 0.58 0.82 0.67 0.59 0.74 0.69 0.36 0.16 0.29 0.58 0.88 0.62 0.22 0.06 0.01 0.02 0.02 0.03 0.01 0.00 0.00 0.00 0.01 0.00 0.00 0.00 0.00 0.00
0.05 0.02 0.06 0.08 0.14 0.05 0.04 0.05 0.09 0.27 0.43 0.34 0.38 0.24 0.22 0.30 0.62 0.84 0.73 0.65 0.71 0.45 0.19 0.12 0.22 0.50 0.37 0.18 0.05 0.05 0.13 0.13 0.08 0.03 0.01 0.01 0.02 0.01 0.01 0.01 0.01 0.01 0.00
0.02 0.03 0.06 0.12 0.15 0.05 0.02 0.03 0.04 0.13 0.23 0.24 0.22 0.18 0.14 0.19 0.29 0.58 0.82 0.69 0.64 0.71 0.50 0.18 0.09 0.25 0.31 0.18 0.17 0.16 0.18 0.21 0.22 0.19 0.06 0.01 0.02 0.03 0.02 0.01 0.03 0.05 0.05
0.04 0.07 0.08 0.12 0.16 0.08 0.02 0.07 0.14 0.16 0.19 0.23 0.19 0.14 0.11 0.12 0.17 0.26 0.48 0.61 0.57 0.51 0.53 0.43 0.27 0.26 0.37 0.42 0.35 0.25 0.20 0.26 0.30 0.24 0.19 0.12 0.05 0.03 0.04 0.04 0.05 0.08 0.14
0.05 0.08 0.10 0.13 0.19 0.10 0.07 0.08 0.14 0.18 0.16 0.15 0.11 0.10 0.07 0.09 0.13 0.16 0.28 0.35 0.47 0.55 0.66 0.73 0.71 0.59 0.43 0.50 0.54 0.46 0.26 0.25 0.26 0.25 0.18 0.13 0.19 0.12 0.08 0.14 0.20 0.15 0.15

GFSSE_prec_precacc_108.txt.gz
Total_Precipitation_Accumulation
0.55 0.14 0.17 0.28 0.15 0.14 0.08 0.04 0.03 0.06 0.09 0.05 0.04 0.04 0.01 0.01 0.03 0.03 0.02 0.03 0.03 0.07 0.05 0.02 0.03 0.08 0.12 0.06 0.07 0.08 0.09 0.09 0.10 0.21 0.43 0.33 0.33 0.21 0.28 0.51 0.34 0.44 0.50
0.72 0.40 0.56 0.31 0.12 0.15 0.16 0.08 0.04 0.06 0.07 0.04 0.03 0.02 0.01 0.00 0.02 0.02 0.01 0.02 0.03 0.15 0.05 0.02 0.03 0.05 0.08 0.03 0.03 0.04 0.02 0.07 0.08 0.13 0.29 0.41 0.41 0.26 0.28 0.41 0.27 0.43 0.50
1.63 0.97 0.87 0.94 0.30 0.22 0.19 0.12 0.06 0.02 0.01 0.02 0.01 0.00 0.01 0.01 0.01 0.02 0.01 0.03 0.06 0.26 0.17 0.04 0.04 0.11 0.07 0.05 0.05 0.01 0.01 0.03 0.07 0.19 0.42 0.30 0.24 0.43 0.37 0.27 0.22 0.30 0.36
0.41 0.57 0.75 1.19 0.97 0.80 0.62 0.22 0.12 0.08 0.05 0.01 0.02 0.02 0.02 0.01 0.03 0.07 0.02 0.01 0.15 0.30 0.29 0.27 0.25 0.17 0.07 0.03 0.02 0.00 0.01 0.04 0.09 0.14 0.38 0.40 0.25 0.49 0.43 0.23 0.22 0.25 0.38
0.35 0.31 0.76 1.18 1.33 0.83 0.99 0.67 0.43 0.38 0.16 0.07 0.12 0.05 0.03 0.05 0.19 0.27 0.22 0.21 0.37 0.43 0.41 0.44 0.41 0.29 0.08 0.00 0.00 0.00 0.01 0.07 0.07 0.12 0.41 0.56 0.50 0.82 0.40 0.28 0.19 0.17 0.26
1.14 0.91 1.64 2.05 1.48 1.03 0.94 1.15 2.03 1.84 1.26 0.97 0.62 0.39 0.21 0.36 0.50 0.49 0.46 0.43 0.47 0.54 0.39 0.37 0.40 0.23 0.02 0.00 0.00 0.00 0.00 0.01 0.10 0.08 0.28 0.73 0.53 0.98 1.12 0.35 0.22 0.24 0.21
2.76 2.23 2.19 3.00 2.30 1.62 1.11 1.36 2.02 3.37 3.89 3.34 2.31 1.32 1.53 1.73 1.40 1.11 0.70 0.56 0.51 0.52 0.54 0.44 0.31 0.20 0.07 0.03 0.10 0.05 0.00 0.06 0.19 0.16 0.18 0.55 1.22 0.93 1.18 0.91 0.26 0.24 0.23
5.81 6.52 4.51 4.60 5.14 3.94 2.54 1.24 1.45 2.05 3.30 3.37 3.48 3.31 3.14 2.50 1.59 1.23 0.75 0.58 0.53 0.51 0.44 0.46 0.32 0.29 0.16 0.26 0.20 0.11 0.09 0.06 0.11 0.22 0.22 0.42 0.89 0.55 0.41 0.40 0.22 0.16 0.12
6.86 10.03 10.33 6.89 6.24 5.55 6.20 3.91 1.58 1.50 1.65 2.05 2.18 2.16 2.52 2.89 1.95 1.42 0.89 0.66 0.69 0.70 0.37 0.32 0.25 0.35 0.48 0.44 0.21 0.18 0.07 0.08 0.08 0.31 0.49 0.09 0.09 0.21 0.31 0.29 0.24 0.17 0.14
7.50 6.57 6.82 5.47 4.75 4.34 4.46 5.06 3.46 2.30 1.97 1.75 1.69 1.58 1.51 2.07 1.97 1.35 0.84 0.64 0.74 0.67 0.48 0.37 0.47 0.60 0.53 0.42 0.31 0.25 0.15 0.08 0.02 0.03 0.15 0.01 0.08 0.16 0.32 0.32 0.22 0.19 0.19
3.50 3.96 3.54 2.44 1.70 1.94 2.04 2.50 3.09 3.09 2.51 2.53 2.74 1.90 1.43 1.38 1.81 1.37 0.94 0.60 0.63 0.69 0.58 0.48 0.60 0.63 0.50 0.40 0.27 0.20 0.11 0.02 0.04 0.00 0.00 0.02 0.06 0.11 0.13 0.22 0.22 0.15 0.19
2.08 1.80 1.28 0.80 0.43 0.47 0.60 0.76 1.27 2.04 2.40 2.14 3.45 2.34 1.94 1.11 1.21 1.08 1.16 0.77 0.68 0.89 0.65 0.73 0.60 0.46 0.36 0.25 0.17 0.12 0.04 0.04 0.04 0.00 0.00 0.02 0.03 0.04 0.03 0.04 0.07 0.15 0.23
0.85 0.81 0.74 0.52 0.30 0.33 0.26 0.31 0.49 1.13 1.96 2.22 2.39 2.24 2.24 1.28 1.40 1.13 1.26 0.97 0.80 1.22 0.84 0.79 0.59 0.42 0.26 0.24 0.22 0.14 0.19 0.12 0.04 0.00 0.00 0.02 0.04 0.03 0.03 0.02 0.03 0.04 0.11
0.45 0.47 0.32 0.35 0.36 0.51 0.36 0.25 0.30 0.72 1.51 1.73 1.38 1.17 1.56 1.07 1.05 1.08 0.84 0.78 0.67 1.13 0.78 0.55 0.38 0.31 0.32 0.34 0.28 0.23 0.17 0.11 0.04 0.00 0.00 0.02 0.05 0.04 0.03 0.03 0.04 0.04 0.06
0.30 0.41 0.39 0.18 0.25 0.23 0.23 0.24 0.23 0.58 0.82 1.10 0.99 0.40 1.02 0.83 0.60 0.95 0.75 0.70 0.51 1.07 0.65 0.37 0.41 0.31 0.34 0.35 0.35 0.30 0.12 0.15 0.03 0.00 0.00 0.02 0.05 0.04 0.03 0.04 0.05 0.04 0.04
0.26 0.39 0.47 0.41 0.35 0.30 0.23 0.31 0.30 0.46 0.82 0.74 0.89 0.38 0.26 0.41 0.57 0.96 0.86 0.74 0.47 0.73 0.61 0.52 0.33 0.39 0.37 0.48 0.31 0.24 0.19 0.16 0.02 0.00 0.00 0.01 0.03 0.03 0.04 0.05 0.06 0.04 0.03
0.07 0.22 0.62 1.02 0.50 0.34 0.28 0.31 0.34 0.25 0.45 0.67 0.78 0.54 0.23 0.13 0.30 0.52 0.71 0.55 0.53 0.61 0.52 0.69 0.62 0.46 0.47 0.72 0.42 0.26 0.14 0.10 0.02 0.00 0.00 0.01 0.02 0.02 0.04 0.05 0.06 0.03 0.03
0.04 0.12 0.66 1.27 0.93 0.48 0.27 0.32 0.37 0.47 0.44 0.54 0.60 0.56 0.30 0.22 0.21 0.26 0.44 0.68 0.54 0.60 0.40 0.44 0.68 0.50 0.45 0.63 0.61 0.31 0.19 0.06 0.02 0.00 0.00 0.00 0.01 0.01 0.03 0.04 0.04 0.03 0.03
0.04 0.17 0.50 0.80 1.08 0.97 0.76 0.71 0.56 0.47 0.53 0.50 0.41 0.45 0.31 0.26 0.29 0.22 0.30 0.41 0.70 0.47 0.36 0.46 0.55 0.60 0.40 0.50 0.62 0.42 0.19 0.03 0.01 0.00 0.00 0.00 0.00 0.01 0.01 0.02 0.02 0.01 0.02
0.08 0.32 0.58 0.72 1.21 1.58 0.87 0.35 0.41 0.64 0.53 0.48 0.32 0.37 0.45 0.33 0.43 0.39 0.36 0.28 0.35 0.51 0.43 0.58 0.70 0.65 0.53 0.43 0.55 0.51 0.14 0.00 0.00 0.00 0.00 0.00 0.00 0.00 0.01 0.01 0.01 0.01 0.01
0.18 0.42 0.64 1.00 0.97 0.47 0.23 0.14 0.26 0.46 0.59 0.53 0.39 0.30 0.52 0.57 0.55 0.69 0.63 0.60 0.39 0.18 0.38 0.47 0.82 0.86 0.73 0.50 0.59 0.58 0.20 0.04 0.00 0.00 0.00 0.00 0.00 0.00 0.00 0.02 0.01 0.00 0.00
0.44 0.44 0.33 0.15 0.13 0.04 0.06 0.08 0.11 0.21 0.41 0.41 0.34 0.18 0.34 0.59 0.83 0.69 0.61 0.74 0.69 0.36 0.16 0.29 0.61 1.04 0.91 0.55 0.42 0.21 0.11 0.04 0.04 0.01 0.00 0.00 0.00 0.01 0.01 0.01 0.01 0.00 0.00
0.05 0.02 0.06 0.08 0.14 0.05 0.04 0.05 0.09 0.27 0.43 0.34 0.38 0.24 0.22 0.30 0.63 0.85 0.75 0.65 0.71 0.45 0.19 0.12 0.23 0.66 0.67 0.57 0.21 0.11 0.14 0.14 0.10 0.04 0.02 0.01 0.02 0.01 0.01 0.01 0.01 0.01 0.00
0.02 0.03 0.06 0.12 0.15 0.05 0.02 0.03 0.04 0.13 0.23 0.24 0.22 0.18 0.14 0.19 0.30 0.59 0.84 0.69 0.64 0.71 0.50 0.18 0.10 0.31 0.55 0.43 0.31 0.21 0.18 0.21 0.23 0.20 0.07 0.01 0.02 0.03 0.02 0.01 0.03 0.05 0.05
0.04 0.07 0.08 0.12 0.16 0.08 0.02 0.07 0.14 0.16 0.19 0.23 0.19 0.14 0.11 0.12 0.17 0.27 0.49 0.61 0.57 0.51 0.53 0.43 0.27 0.28 0.51 0.61 0.48 0.33 0.26 0.29 0.31 0.25 0.19 0.12 0.05 0.03 0.04 0.04 0.05 0.08 0.14
0.05 0.08 0.10 0.13 0.19 0.10 0.07 0.08 0.14 0.18 0.16 0.15 0.11 0.10 0.07 0.09 0.13 0.16 0.29 0.35 0.47 0.55 0.66 0.73 0.71 0.59 0.46 0.59 0.67 0.57 0.33 0.29 0.28 0.25 0.18 0.14 0.19 0.12 0.08 0.14 0.20 0.15 0.15

GFSSE_prec_precacc_111.txt.gz
Total_Precipitation_Accumulation
0.55 0.14 0.17 0.28 0.15 0.14 0.08 0.04 0.03 0.06 0.09 0.05 0.04 0.04 0.01 0.01 0.03 0.03 0.02 0.03 0.03 0.07 0.05 0.02 0.03 0.08 0.13 0.06 0.09 0.10 0.10 0.10 0.15 0.32 0.52 0.38 0.33 0.21 0.29 0.51 0.35 0.44 0.50
0.72 0.40 0.56 0.31 0.12 0.15 0.16 0.08 0.04 0.06 0.07 0.04 0.03 0.02 0.01 0.00 0.02 0.02 0.01 0.02 0.03 0.15 0.06 0.02 0.04 0.05 0.08 0.04 0.03 0.04 0.02 0.07 0.10 0.18 0.35 0.43 0.41 0.27 0.30 0.42 0.27 0.44 0.51
1.63 0.97 0.87 0.94 0.30 0.22 0.19 0.12 0.06 0.02 0.01 0.02 0.01 0.00 0.01 0.01 0.01 0.02 0.01 0.03 0.06 0.26 0.23 0.04 0.05 0.12 0.07 0.05 0.05 0.01 0.01 0.03 0.08 0.21 0.43 0.30 0.24 0.46 0.38 0.28 0.22 0.31 0.37
0.41 0.57 0.75 1.19 0.97 0.80 0.62 0.22 0.12 0.08 0.05 0.01 0.02 0.02 0.02 0.01 0.03 0.07 0.02 0.01 0.15 0.30 0.30 0.29 0.26 0.17 0.07 0.03 0.02 0.00 0.01 0.04 0.09 0.14 0.38 0.50 0.27 0.56 0.43 0.23 0.22 0.26 0.39
0.35 0.31 0.76 1.18 1.33 0.83 0.99 0.67 0.43 0.38 0.16 0.07 0.12 0.05 0.03 0.05 0.19 0.27 0.22 0.21 0.37 0.43 0.41 0.44 0.41 0.29 0.08 0.00 0.00 0.00 0.01 0.07 0.07 0.13 0.43 0.82 0.53 0.91 0.42 0.30 0.20 0.18 0.26
1.14 0.91 1.64 2.05 1.48 1.03 0.94 1.15 2.03 1.84 1.26 0.97 0.62 0.39 0.21 0.37 0.50 0.49 0.46 0.43 0.47 0.54 0.39 0.37 0.42 0.23 0.02 0.00 0.00 0.00 0.00 0.01 0.15 0.14 0.29 1.07 0.58 1.11 1.15 0.36 0.23 0.25 0.22
2.76 2.23 2.19 3.00 2.30 1.62 1.11 1.36 2.02 3.37 3.89 3.34 2.31 1.32 1.53 1.73 1.40 1.11 0.70 0.56 0.51 0.52 0.54 0.44 0.31 0.20 0.07 0.03 0.10 0.05 0.02 0.12 0.33 0.34 0.22 0.84 1.33 0.98 1.20 0.91 0.26 0.24 0.23
5.81 6.52 4.51 4.60 5.14 3.94 2.54 1.24 1.45 2.05 3.30 3.37 3.48 3.31 3.14 2.51 1.60 1.23 0.75 0.58 0.53 0.51 0.44 0.46 0.32 0.29 0.17 0.27 0.25 0.15 0.15 0.20 0.26 0.40 0.41 0.61 1.08 0.57 0.43 0.40 0.22 0.16 0.12
6.86 10.03 10.33 6.89 6.24 5.55 6.20 3.91 1.58 1.50 1.65 2.05 2.18 2.17 2.52 2.89 1.96 1.43 0.90 0.66 0.69 0.70 0.37 0.34 0.29 0.39 0.57 0.53 0.22 0.24 0.28 0.30 0.22 0.53 0.77 0.32 0.18 0.22 0.31 0.29 0.24 0.17 0.14
7.50 6.57 6.82 5.47 4.75 4.34 4.46 5.06 3.46 2.30 1.97 1.75 1.69 1.58 1.51 2.07 1.98 1.37 0.86 0.64 0.74 0.67 0.48 0.39 0.48 0.62 0.55 0.42 0.31 0.28 0.25 0.24 0.07 0.11 0.42 0.14 0.12 0.16 0.32 0.32 0.22 0.20 0.19
3.50 3.96 3.54 2.44 1.70 1.94 2.04 2.50 3.09 3.09 2.51 2.53 2.74 1.90 1.43 1.38 1.81 1.37 0.94 0.60 0.65 0.69 0.59 0.49 0.60 0.63 0.50 0.40 0.27 0.20 0.13 0.06 0.11 0.06 0.03 0.09 0.08 0.11 0.13 0.22 0.22 0.15 0.19
2.08 1.80 1.28 0.80 0.43 0.47 0.60 0.76 1.27 2.04 2.40 2.14 3.45 2.34 1.94 1.11 1.21 1.08 1.16 0.77 0.68 0.89 0.65 0.74 0.60 0.46 0.36 0.25 0.17 0.12 0.04 0.05 0.08 0.07 0.03 0.10 0.06 0.04 0.03 0.04 0.08 0.15 0.24
0.85 0.81 0.74 0.52 0.30 0.33 0.26 0.31 0.49 1.13 1.96 2.22 2.39 2.24 2.24 1.28 1.40 1.13 1.29 1.00 0.81 1.23 0.84 0.79 0.59 0.42 0.26 0.24 0.22 0.14 0.20 0.14 0.11 0.07 0.02 0.06 0.09 0.03 0.03 0.02 0.03 0.04 0.11
0.45 0.47 0.32 0.35 0.36 0.51 0.36 0.25 0.30 0.72 1.51 1.73 1.38 1.17 1.56 1.07 1.05 1.08 0.85 0.87 0.68 1.14 0.80 0.55 0.38 0.31 0.32 0.34 0.28 0.23 0.17 0.15 0.13 0.06 0.03 0.05 0.09 0.04 0.03 0.03 0.04 0.04 0.06
0.30 0.41 0.39 0.18 0.25 0.23 0.23 0.24 0.23 0.58 0.82 1.10 0.99 0.40 1.02 0.83 0.60 0.96 0.77 0.74 0.55 1.10 0.66 0.37 0.41 0.31 0.34 0.35 0.35 0.30 0.13 0.20 0.10 0.07 0.05 0.04 0.06 0.04 0.03 0.04 0.05 0.04 0.04
0.26 0.39 0.47 0.41 0.35 0.30 0.23 0.31 0.30 0.46 0.82 0.74 0.89 0.38 0.26 0.41 0.57 0.96 0.88 0.75 0.50 0.74 0.63 0.52 0.33 0.39 0.37 0.48 0.32 0.25 0.20 0.23 0.07 0.04 0.02 0.02 0.03 0.03 0.04 0.05 0.06 0.04 0.04
0.07 0.22 0.62 1.02 0.50 0.34 0.28 0.31 0.34 0.25 0.45 0.67 0.78 0.54 0.23 0.13 0.30 0.52 0.72 0.56 0.54 0.62 0.53 0.69 0.62 0.46 0.47 0.73 0.43 0.29 0.18 0.24 0.11 0.02 0.00 0.01 0.02 0.02 0.04 0.05 0.06 0.04 0.03
0.04 0.12 0.66 1.27 0.93 0.48 0.27 0.32 0.37 0.47 0.44 0.54 0.60 0.56 0.30 0.22 0.21 0.26 0.44 0.68 0.54 0.61 0.43 0.46 0.69 0.50 0.45 0.65 0.64 0.35 0.28 0.23 0.25 0.03 0.00 0.00 0.01 0.01 0.03 0.04 0.05 0.03 0.03
0.04 0.17 0.50 0.80 1.08 0.97 0.76 0.71 0.56 0.47 0.53 0.50 0.41 0.45 0.31 0.26 0.29 0.22 0.30 0.41 0.71 0.47 0.37 0.48 0.57 0.60 0.41 0.51 0.67 0.50 0.36 0.26 0.19 0.02 0.00 0.00 0.00 0.01 0.01 0.03 0.03 0.02 0.02
0.08 0.32 0.58 0.72 1.21 1.58 0.87 0.35 0.41 0.64 0.53 0.48 0.32 0.37 0.45 0.33 0.43 0.39 0.36 0.28 0.36 0.52 0.44 0.59 0.70 0.65 0.53 0.43 0.59 0.65 0.36 0.36 0.17 0.01 0.00 0.00 0.00 0.00 0.01 0.02 0.01 0.01 0.01
0.18 0.42 0.64 1.00 0.97 0.47 0.23 0.14 0.26 0.46 0.59 0.53 0.39 0.30 0.52 0.57 0.55 0.69 0.63 0.60 0.39 0.18 0.39 0.47 0.82 0.87 0.74 0.52 0.77 0.86 0.69 0.34 0.23 0.03 0.01 0.00 0.00 0.00 0.00 0.02 0.01 0.00 0.00
0.44 0.44 0.33 0.15 0.13 0.04 0.06 0.08 0.11 0.21 0.41 0.41 0.34 0.18 0.34 0.59 0.83 0.69 0.61 0.74 0.69 0.36 0.17 0.30 0.62 1.05 0.92 0.60 0.64 0.70 0.52 0.30 0.13 0.03 0.01 0.00 0.01 0.01 0.01 0.01 0.01 0.00 0.00
0.05 0.02 0.06 0.08 0.14 0.05 0.04 0.05 0.09 0.27 0.43 0.34 0.38 0.24 0.22 0.30 0.63 0.85 0.75 0.65 0.71 0.45 0.19 0.12 0.24 0.67 0.68 0.65 0.40 0.47 0.27 0.24 0.13 0.05 0.02 0.01 0.02 0.01 0.01 0.01 0.01 0.01 0.00
0.02 0.03 0.06 0.12 0.15 0.05 0.02 0.03 0.04 0.13 0.23 0.24 0.22 0.18 0.14 0.19 0.30 0.59 0.84 0.69 0.64 0.71 0.50 0.18 0.10 0.31 0.57 0.57 0.59 0.51 0.23 0.21 0.23 0.22 0.08 0.01 0.03 0.03 0.02 0.01 0.03 0.05 0.05
0.04 0.07 0.08 0.13 0.19 0.09 0.02 0.07 0.14 0.16 0.19 0.23 0.19 0.14 0.11 0.12 0.17 0.27 0.49 0.61 0.57 0.51 0.53 0.43 0.27 0.28 0.52 0.67 0.67 0.49 0.33 0.32 0.35 0.27 0.21 0.13 0.05 0.03 0.04 0.04 0.05 0.08 0.14
0.05 0.08 0.10 0.13 0.22 0.16 0.08 0.08 0.14 0.18 0.16 0.15 0.11 0.10 0.07 0.09 0.13 0.16 0.29 0.35 0.47 0.55 0.66 0.73 0.71 0.59 0.47 0.62 0.81 0.65 0.39 0.36 0.34 0.29 0.22 0.17 0.20 0.12 0.08 0.14 0.20 0.15 0.15

GFSSE_prec_precacc_114.txt.gz
Total_Precipitation_Accumulation
0.55 0.14 0.17 0.28 0.15 0.14 0.08 0.04 0.03 0.06 0.09 0.05 0.04 0.04 0.01 0.01 0.03 0.03 0.02 0.03 0.03 0.07 0.05 0.02 0.03 0.08 0.13 0.07 0.11 0.10 0.10 0.10 0.17 0.37 0.58 0.41 0.34 0.21 0.29 0.51 0.35 0.44 0.50
0.72 0.40 0.56 0.31 0.12 0.15 0.16 0.08 0.04 0.06 0.07 0.04 0.03 0.02 0.01 0.00 0.02 0.02 0.01 0.02 0.03 0.15 0.06 0.02 0.04 0.06 0.09 0.07 0.05 0.04 0.02 0.07 0.11 0.21 0.37 0.46 0.42 0.27 0.30 0.42 0.27 0.44 0.51
1.63 0.97 0.87 0.94 0.30 0.22 0.19 0.12 0.06 0.02 0.01 0.02 0.01 0.00 0.01 0.01 0.01 0.02 0.01 0.03 0.06 0.26 0.23 0.04 0.05 0.12 0.07 0.05 0.06 0.04 0.02 0.03 0.08 0.21 0.43 0.30 0.25 0.47 0.38 0.28 0.22 0.31 0.37
0.41 0.57 0.75 1.19 0.97 0.80 0.62 0.22 0.12 0.08 0.05 0.01 0.02 0.02 0.02 0.01 0.03 0.07 0.02 0.01 0.15 0.30 0.30 0.29 0.26 0.17 0.07 0.03 0.03 0.05 0.03 0.04 0.09 0.14 0.40 0.67 0.28 0.58 0.43 0.23 0.23 0.27 0.39
0.35 0.31 0.76 1.18 1.33 0.83 0.99 0.67 0.43 0.38 0.16 0.07 0.12 0.05 0.03 0.05 0.19 0.27 0.22 0.21 0.37 0.43 0.41 0.44 0.41 0.29 0.08 0.00 0.00 0.01 0.03 0.08 0.07 0.13 0.43 0.91 0.57 0.93 0.44 0.30 0.21 0.19 0.28
1.14 0.91 1.64 2.05 1.48 1.03 0.94 1.15 2.03 1.84 1.26 0.97 0.62 0.39 0.21 0.37 0.50 0.49 0.46 0.43 0.47 0.54 0.39 0.37 0.43 0.23 0.02 0.00 0.00 0.00 0.03 0.06 0.22 0.16 0.29 1.13 0.82 1.19 1.17 0.36 0.24 0.27 0.24
2.76 2.23 2.19 3.00 2.30 1.62 1.11 1.36 2.02 3.37 3.89 3.34 2.31 1.32 1.53 1.73 1.40 1.11 0.70 0.56 0.51 0.52 0.54 0.44 0.31 0.20 0.07 0.03 0.11 0.09 0.04 0.18 0.35 0.51 0.31 1.03 1.78 1.13 1.21 0.91 0.26 0.25 0.24
5.81 6.52 4.51 4.60 5.14 3.94 2.54 1.24 1.45 2.05 3.30 3.37 3.48 3.31 3.14 2.51 1.60 1.23 0.75 0.58 0.53 0.51 0.44 0.47 0.32 0.29 0.17 0.27 0.25 0.24 0.22 0.21 0.26 0.50 0.67 0.66 1.49 0.80 0.44 0.40 0.22 0.16 0.12
6.86 10.03 10.33 6.89 6.24 5.55 6.20 3.91 1.58 1.50 1.65 2.05 2.18 2.17 2.52 2.89 1.96 1.43 0.90 0.66 0.69 0.70 0.37 0.34 0.29 0.39 0.57 0.53 0.22 0.26 0.28 0.31 0.24 0.70 1.05 0.43 0.39 0.50 0.32 0.29 0.24 0.17 0.14
7.50 6.57 6.82 5.47 4.75 4.34 4.46 5.06 3.46 2.30 1.97 1.75 1.69 1.58 1.51 2.07 1.98 1.37 0.86 0.64 0.74 0.67 0.48 0.39 0.48 0.62 0.55 0.46 0.47 0.41 0.31 0.25 0.07 0.12 0.45 0.25 0.26 0.20 0.33 0.32 0.22 0.20 0.20
3.50 3.96 3.54 2.44 1.70 1.94 2.04 2.50 3.09 3.09 2.51 2.53 2.74 1.90 1.43 1.38 1.81 1.37 0.94 0.61 0.69 0.69 0.59 0.49 0.60 0.63 0.50 0.43 0.31 0.24 0.18 0.13 0.12 0.06 0.04 0.16 0.27 0.20 0.14 0.22 0.22 0.15 0.20
2.08 1.80 1.28 0.80 0.43 0.47 0.60 0.76 1.27 2.04 2.40 2.14 3.45 2.34 1.94 1.11 1.21 1.08 1.16 0.77 0.69 0.89 0.65 0.74 0.60 0.46 0.36 0.25 0.17 0.13 0.05 0.06 0.08 0.07 0.05 0.22 0.23 0.08 0.04 0.04 0.08 0.16 0.24
0.85 0.81 0.74 0.52 0.30 0.33 0.26 0.31 0.49 1.13 1.96 2.22 2.39 2.24 2.24 1.28 1.40 1.13 1.29 1.00 0.81 1.23 0.84 0.79 0.59 0.42 0.26 0.24 0.22 0.14 0.20 0.14 0.11 0.07 0.05 0.15 0.21 0.10 0.04 0.02 0.03 0.04 0.11
0.45 0.47 0.32 0.35 0.36 0.51 0.36 0.25 0.30 0.72 1.51 1.73 1.38 1.17 1.56 1.07 1.05 1.08 0.85 0.87 0.68 1.14 0.80 0.55 0.38 0.31 0.32 0.34 0.28 0.23 0.17 0.15 0.13 0.07 0.06 0.10 0.19 0.08 0.03 0.03 0.04 0.04 0.06
0.30 0.41 0.39 0.18 0.25 0.23 0.23 0.24 0.23 0.58 0.82 1.10 0.99 0.40 1.02 0.83 0.60 0.96 0.77 0.75 0.55 1.10 0.66 0.37 0.41 0.31 0.34 0.35 0.35 0.30 0.13 0.20 0.11 0.12 0.16 0.14 0.17 0.10 0.03 0.04 0.05 0.04 0.04
0.26 0.39 0.47 0.41 0.35 0.30 0.23 0.31 0.30 0.46 0.82 0.74 0.89 0.38 0.26 0.41 0.57 0.96 0.88 0.75 0.51 0.76 0.64 0.52 0.33 0.39 0.37 0.48 0.32 0.25 0.20 0.23 0.08 0.08 0.14 0.14 0.14 0.11 0.05 0.05 0.06 0.04 0.04
0.07 0.22 0.62 1.02 0.50 0.34 0.28 0.31 0.34 0.25 0.45 0.67 0.78 0.54 0.23 0.13 0.30 0.52 0.72 0.56 0.54 0.62 0.54 0.69 0.62 0.46 0.47 0.73 0.43 0.29 0.18 0.24 0.12 0.04 0.08 0.11 0.09 0.05 0.04 0.05 0.06 0.04 0.04
0.04 0.12 0.66 1.27 0.93 0.48 0.27 0.32 0.37 0.47 0.44 0.54 0.60 0.56 0.30 0.22 0.21 0.26 0.44 0.68 0.54 0.61 0.43 0.46 0.69 0.50 0.45 0.65 0.64 0.36 0.28 0.23 0.28 0.07 0.04 0.04 0.03 0.02 0.03 0.04 0.05 0.03 0.04
0.04 0.17 0.50 0.80 1.08 0.97 0.76 0.71 0.56 0.47 0.53 0.50 0.41 0.45 0.31 0.26 0.29 0.22 0.30 0.41 0.71 0.47 0.37 0.48 0.57 0.60 0.41 0.51 0.67 0.51 0.36 0.28 0.32 0.27 0.04 0.01 0.01 0.01 0.01 0.03 0.03 0.02 0.02
0.08 0.32 0.58 0.72 1.21 1.58 0.87 0.35 0.41 0.64 0.53 0.48 0.32 0.37 0.45 0.33 0.43 0.39 0.36 0.28 0.36 0.52 0.44 0.59 0.70 0.65 0.54 0.44 0.59 0.66 0.36 0.38 0.31 0.36 0.16 0.01 0.00 0.00 0.01 0.02 0.02 0.02 0.02
0.18 0.42 0.64 1.00 0.97 0.47 0.24 0.15 0.26 0.46 0.59 0.53 0.39 0.30 0.52 0.57 0.55 0.69 0.63 0.60 0.39 0.19 0.39 0.48 0.83 0.88 0.75 0.53 0.78 0.89 0.70 0.36 0.35 0.30 0.16 0.03 0.00 0.00 0.00 0.02 0.01 0.00 0.01
0.44 0.44 0.33 0.15 0.13 0.04 0.06 0.09 0.16 0.22 0.41 0.41 0.34 0.18 0.34 0.59 0.83 0.69 0.61 0.74 0.69 0.36 0.17 0.31 0.63 1.07 0.94 0.62 0.66 0.75 0.59 0.39 0.29 0.35 0.17 0.02 0.01 0.01 0.01 0.01 0.01 0.01 0.00
0.05 0.02 0.06 0.08 0.14 0.05 0.04 0.11 0.17 0.33 0.46 0.35 0.38 0.24 0.22 0.30 0.63 0.85 0.75 0.65 0.71 0.45 0.19 0.12 0.24 0.68 0.68 0.66 0.41 0.49 0.32 0.32 0.20 0.26 0.22 0.03 0.02 0.01 0.01 0.01 0.01 0.01 0.00
0.02 0.03 0.06 0.12 0.15 0.05 0.02 0.03 0.05 0.13 0.23 0.24 0.22 0.18 0.14 0.19 0.30 0.59 0.84 0.69 0.64 0.71 0.50 0.18 0.10 0.31 0.57 0.58 0.61 0.56 0.26 0.24 0.26 0.32 0.20 0.04 0.03 0.03 0.02 0.01 0.03 0.05 0.05
0.04 0.07 0.08 0.15 0.28 0.20 0.10 0.11 0.16 0.17 0.19 0.23 0.19 0.14 0.11 0.12 0.17 0.27 0.49 0.61 0.57 0.51 0.53 0.43 0.27 0.28 0.52 0.67 0.68 0.57 0.48 0.38 0.39 0.30 0.28 0.17 0.07 0.04 0.04 0.04 0.05 0.08 0.14
0.05 0.08 0.10 0.13 0.24 0.26 0.19 0.22 0.26 0.25 0.17 0.15 0.11 0.10 0.07 0.10 0.13 0.16 0.29 0.35 0.47 0.55 0.66 0.73 0.71 0.59 0.47 0.63 0.81 0.69 0.50 0.44 0.39 0.33 0.27 0.23 0.25 0.16 0.09 0.14 0.20 0.15 0.15

GFSSE_prec_precacc_117.txt.gz
Total_Precipitation_Accumulation
0.55 0.14 0.17 0.28 0.15 0.14 0.08 0.04 0.03 0.06 0.09 0.05 0.04 0.04 0.01 0.01 0.03 0.03 0.02 0.03 0.03 0.07 0.05 0.02 0.03 0.08 0.13 0.11 0.17 0.13 0.13 0.11 0.17 0.38 0.61 0.48 0.37 0.22 0.29 0.52 0.35 0.44 0.54
0.72 0.40 0.56 0.31 0.12 0.15 0.16 0.08 0.04 0.06 0.07 0.04 0.03 0.02 0.01 0.00 0.02 0.02 0.01 0.02 0.03 0.15 0.06 0.02 0.04 0.07 0.10 0.08 0.08 0.05 0.03 0.07 0.11 0.21 0.38 0.49 0.45 0.28 0.30 0.43 0.27 0.46 0.55
1.63 0.97 0.87 0.94 0.30 0.22 0.19 0.12 0.06 0.02 0.01 0.02 0.01 0.00 0.01 0.01 0.01 0.02 0.01 0.03 0.06 0.26 0.23 0.04 0.05 0.12 0.07 0.05 0.06 0.05 0.03 0.03 0.09 0.21 0.46 0.31 0.26 0.49 0.38 0.29 0.25 0.33 0.38
0.41 0.57 0.75 1.19 0.97 0.80 0.62 0.22 0.12 0.08 0.05 0.01 0.02 0.02 0.02 0.01 0.03 0.07 0.02 0.01 0.15 0.30 0.30 0.29 0.26 0.17 0.07 0.03 0.03 0.05 0.03 0.04 0.10 0.16 0.44 0.82 0.32 0.60 0.44 0.24 0.24 0.28 0.40
0.35 0.31 0.76 1.18 1.33 0.83 0.99 0.67 0.43 0.38 0.16 0.07 0.12 0.05 0.03 0.05 0.19 0.27 0.22 0.21 0.37 0.43 0.41 0.44 0.41 0.29 0.08 0.00 0.00 0.01 0.03 0.08 0.07 0.13 0.44 0.96 0.68 0.94 0.46 0.32 0.23 0.20 0.29
1.14 0.91 1.64 2.05 1.48 1.03 0.94 1.15 2.03 1.84 1.26 0.97 0.62 0.39 0.21 0.37 0.50 0.49 0.46 0.43 0.48 0.55 0.40 0.37 0.43 0.23 0.02 0.00 0.00 0.00 0.03 0.06 0.22 0.16 0.30 1.19 1.01 1.23 1.20 0.36 0.25 0.27 0.25
2.76 2.23 2.19 3.00 2.30 1.62 1.11 1.36 2.02 3.37 3.89 3.34 2.31 1.32 1.53 1.73 1.40 1.11 0.70 0.56 0.51 0.53 0.54 0.45 0.32 0.20 0.07 0.03 0.11 0.09 0.04 0.18 0.35 0.61 0.51 1.17 2.10 1.30 1.28 0.91 0.28 0.25 0.24
5.81 6.52 4.51 4.60 5.14 3.94 2.54 1.24 1.45 2.05 3.30 3.37 3.48 3.31 3.14 2.51 1.60 1.23 0.75 0.58 0.53 0.51 0.45 0.48 0.32 0.29 0.17 0.27 0.25 0.24 0.22 0.21 0.27 0.51 0.74 0.67 1.78 1.51 0.61 0.45 0.23 0.16 0.13
6.86 10.03 10.33 6.89 6.24 5.55 6.20 3.91 1.58 1.50 1.65 2.05 2.18 2.17 2.52 2.89 1.96 1.43 0.90 0.66 0.69 0.70 0.37 0.34 0.29 0.39 0.57 0.53 0.23 0.26 0.29 0.31 0.25 0.71 1.12 0.50 0.53 1.01 0.79 0.38 0.24 0.17 0.14
7.50 6.57 6.82 5.47 4.75 4.34 4.46 5.06 3.46 2.30 1.97 1.75 1.69 1.58 1.51 2.07 1.98 1.37 0.86 0.64 0.74 0.67 0.48 0.39 0.48 0.62 0.57 0.53 0.54 0.46 0.35 0.26 0.08 0.12 0.45 0.31 0.43 0.26 0.43 0.38 0.23 0.20 0.20
3.50 3.96 3.54 2.44 1.70 1.94 2.04 2.50 3.09 3.09 2.51 2.53 2.74 1.90 1.43 1.38 1.81 1.37 0.94 0.61 0.69 0.69 0.59 0.49 0.60 0.63 0.53 0.44 0.31 0.24 0.20 0.20 0.12 0.06 0.04 0.16 0.45 0.40 0.23 0.24 0.23 0.15 0.20
2.08 1.80 1.28 0.80 0.43 0.47 0.60 0.76 1.27 2.04 2.40 2.14 3.45 2.34 1.94 1.11 1.21 1.08 1.16 0.78 0.69 0.89 0.65 0.74 0.60 0.46 0.36 0.25 0.17 0.13 0.05 0.15 0.09 0.08 0.06 0.22 0.32 0.30 0.11 0.06 0.08 0.16 0.25
0.85 0.81 0.74 0.52 0.30 0.33 0.26 0.31 0.49 1.13 1.96 2.22 2.39 2.24 2.24 1.28 1.40 1.13 1.29 1.01 0.81 1.23 0.84 0.79 0.59 0.42 0.26 0.24 0.22 0.14 0.20 0.14 0.12 0.09 0.10 0.15 0.28 0.25 0.07 0.02 0.03 0.04 0.11
0.45 0.47 0.32 0.35 0.36 0.51 0.36 0.25 0.30 0.72 1.51 1.73 1.38 1.17 1.56 1.07 1.05 1.08 0.85 0.87 0.68 1.14 0.80 0.55 0.38 0.31 0.32 0.34 0.28 0.23 0.17 0.15 0.13 0.07 0.09 0.14 0.24 0.19 0.04 0.03 0.04 0.04 0.06
0.30 0.41 0.39 0.18 0.25 0.23 0.23 0.24 0.23 0.58 0.82 1.10 0.99 0.40 1.02 0.83 0.60 0.96 0.77 0.75 0.55 1.10 0.66 0.37 0.41 0.31 0.34 0.35 0.35 0.30 0.13 0.20 0.11 0.12 0.22 0.27 0.30 0.24 0.09 0.05 0.05 0.04 0.04
0.26 0.39 0.47 0.41 0.35 0.30 0.23 0.31 0.30 0.46 0.82 0.74 0.89 0.38 0.26 0.41 0.57 0.96 0.88 0.75 0.51 0.76 0.64 0.52 0.33 0.39 0.37 0.48 0.32 0.25 0.20 0.23 0.08 0.08 0.16 0.24 0.25 0.28 0.18 0.07 0.06 0.04 0.04
0.07 0.22 0.62 1.02 0.50 0.34 0.28 0.31 0.34 0.25 0.45 0.67 0.78 0.54 0.23 0.13 0.30 0.52 0.72 0.56 0.54 0.62 0.54 0.69 0.62 0.46 0.47 0.73 0.43 0.29 0.18 0.24 0.12 0.04 0.08 0.15 0.18 0.22 0.25 0.16 0.07 0.04 0.04
0.04 0.12 0.66 1.27 0.93 0.48 0.27 0.32 0.37 0.47 0.44 0.54 0.60 0.56 0.30 0.22 0.21 0.26 0.44 0.68 0.54 0.61 0.43 0.46 0.69 0.50 0.45 0.65 0.64 0.36 0.28 0.23 0.28 0.07 0.04 0.09 0.13 0.12 0.14 0.11 0.07 0.03 0.04
0.04 0.17 0.50 0.80 1.08 0.97 0.76 0.71 0.56 0.47 0.53 0.50 0.41 0.45 0.31 0.26 0.29 0.22 0.30 0.41 0.71 0.47 0.37 0.48 0.57 0.60 0.41 0.51 0.67 0.52 0.37 0.28 0.32 0.27 0.06 0.06 0.09 0.11 0.05 0.05 0.04 0.03 0.03
0.08 0.32 0.58 0.72 1.21 1.58 0.87 0.35 0.41 0.64 0.53 0.48 0.32 0.37 0.45 0.33 0.43 0.39 0.36 0.28 0.36 0.52 0.44 0.59 0.70 0.65 0.54 0.44 0.60 0.67 0.38 0.38 0.31 0.37 0.22 0.15 0.14 0.06 0.02 0.03 0.03 0.02 0.02
0.18 0.42 0.64 1.00 0.97 0.47 0.24 0.15 0.27 0.47 0.59 0.53 0.39 0.30 0.52 0.57 0.55 0.69 0.63 0.60 0.39 0.19 0.39 0.48 0.84 0.89 0.76 0.54 0.82 0.93 0.71 0.37 0.36 0.31 0.27 0.26 0.29 0.05 0.01 0.02 0.01 0.00 0.01
0.44 0.44 0.33 0.15 0.13 0.04 0.06 0.10 0.16 0.24 0.44 0.47 0.38 0.18 0.34 0.59 0.83 0.69 0.61 0.74 0.69 0.36 0.17 0.31 0.64 1.09 0.97 0.64 0.70 0.78 0.64 0.42 0.30 0.37 0.24 0.15 0.17 0.07 0.02 0.01 0.01 0.01 0.00
0.05 0.02 0.06 0.08 0.14 0.05 0.04 0.12 0.18 0.37 0.56 0.48 0.43 0.24 0.22 0.30 0.63 0.85 0.75 0.65 0.71 0.45 0.19 0.12 0.24 0.69 0.70 0.68 0.43 0.52 0.34 0.33 0.21 0.27 0.28 0.15 0.13 0.08 0.03 0.01 0.01 0.02 0.01
0.02 0.03 0.06 0.12 0.15 0.06 0.05 0.04 0.07 0.14 0.23 0.24 0.22 0.18 0.14 0.19 0.30 0.59 0.84 0.69 0.64 0.71 0.51 0.18 0.11 0.31 0.58 0.60 0.63 0.58 0.27 0.24 0.27 0.33 0.25 0.17 0.13 0.07 0.03 0.01 0.03 0.05 0.06
0.04 0.07 0.08 0.15 0.28 0.21 0.12 0.14 0.20 0.24 0.24 0.24 0.19 0.14 0.11 0.13 0.17 0.27 0.49 0.61 0.57 0.51 0.53 0.43 0.27 0.29 0.53 0.68 0.69 0.58 0.49 0.39 0.42 0.35 0.36 0.30 0.18 0.09 0.05 0.04 0.05 0.08 0.14
0.05 0.08 0.10 0.13 0.24 0.27 0.22 0.26 0.31 0.33 0.27 0.24 0.16 0.13 0.09 0.14 0.16 0.17 0.29 0.35 0.47 0.55 0.66 0.73 0.71 0.59 0.47 0.64 0.82 0.70 0.50 0.45 0.44 0.45 0.38 0.29 0.31 0.21 0.13 0.16 0.21 0.15 0.15

GFSSE_prec_precacc_120.txt.gz
Total_Precipitation_Accumulation
0.55 0.14 0.17 0.28 0.15 0.14 0.08 0.04 0.03 0.06 0.09 0.05 0.04 0.04 0.01 0.01 0.03 0.03 0.02 0.03 0.03 0.07 0.05 0.02 0.03 0.08 0.14 0.11 0.18 0.14 0.15 0.14 0.20 0.52 0.63 0.50 0.40 0.22 0.30 0.53 0.36 0.44 0.60
0.72 0.40 0.56 0.31 0.12 0.15 0.16 0.08 0.04 0.06 0.07 0.04 0.03 0.02 0.01 0.00 0.02 0.02 0.01 0.02 0.03 0.15 0.06 0.02 0.04 0.07 0.10 0.08 0.08 0.05 0.03 0.08 0.13 0.35 0.45 0.54 0.51 0.29 0.30 0.43 0.28 0.47 0.59
1.63 0.97 0.87 0.94 0.30 0.22 0.19 0.12 0.06 0.02 0.01 0.02 0.01 0.00 0.01 0.01 0.01 0.02 0.01 0.03 0.06 0.26 0.23 0.04 0.05 0.12 0.07 0.05 0.06 0.05 0.03 0.03 0.10 0.26 0.51 0.31 0.27 0.51 0.38 0.29 0.25 0.35 0.39
0.41 0.57 0.75 1.19 0.97 0.80 0.62 0.22 0.12 0.08 0.05 0.01 0.02 0.02 0.02 0.01 0.03 0.07 0.02 0.01 0.15 0.30 0.30 0.29 0.26 0.17 0.07 0.03 0.03 0.05 0.03 0.04 0.10 0.19 0.52 0.87 0.36 0.64 0.44 0.24 0.25 0.29 0.41
0.35 0.31 0.76 1.18 1.33 0.83 0.99 0.67 0.43 0.38 0.16 0.07 0.12 0.05 0.03 0.05 0.19 0.27 0.22 0.21 0.38 0.44 0.42 0.44 0.41 0.29 0.08 0.00 0.00 0.01 0.03 0.08 0.07 0.13 0.45 0.97 0.73 0.97 0.49 0.33 0.26 0.21 0.30
1.14 0.91 1.64 2.05 1.48 1.03 0.94 1.15 2.03 1.84 1.26 0.97 0.62 0.39 0.21 0.37 0.50 0.49 0.46 0.43 0.48 0.55 0.40 0.38 0.43 0.23 0.02 0.00 0.00 0.00 0.03 0.06 0.22 0.16 0.31 1.20 1.11 1.31 1.30 0.41 0.28 0.31 0.28
2.76 2.23 2.19 3.00 2.30 1.62 1.11 1.36 2.02 3.37 3.89 3.34 2.31 1.32 1.53 1.73 1.40 1.11 0.70 0.56 0.51 0.53 0.54 0.45 0.32 0.20 0.07 0.03 0.11 0.09 0.04 0.18 0.35 0.61 0.54 1.21 2.33 1.42 1.40 1.00 0.33 0.27 0.26
5.81 6.52 4.51 4.60 5.14 3.94 2.54 1.24 1.45 2.05 3.30 3.37 3.48 3.31 3.14 2.51 1.60 1.23 0.75 0.58 0.54 0.52 0.45 0.48 0.32 0.29 0.17 0.27 0.25 0.24 0.22 0.21 0.27 0.51 0.75 0.69 1.94 2.13 1.02 0.58 0.29 0.18 0.14
6.86 10.03 10.33 6.89 6.24 5.55 6.20 3.91 1.58 1.50 1.65 2.05 2.18 2.17 2.52 2.89 1.96 1.43 0.90 0.66 0.69 0.71 0.38 0.34 0.29 0.39 0.57 0.53 0.23 0.26 0.29 0.31 0.25 0.71 1.13 0.55 0.62 1.56 1.71 0.68 0.35 0.20 0.15
7.50 6.57 6.82 5.47 4.75 4.34 4.46 5.06 3.46 2.30 1.97 1.75 1.69 1.58 1.51 2.07 1.98 1.37 0.86 0.64 0.74 0.67 0.48 0.39 0.48 0.62 0.57 0.53 0.54 0.46 0.35 0.26 0.08 0.12 0.45 0.36 0.57 0.32 0.57 0.61 0.42 0.27 0.22
3.50 3.96 3.54 2.44 1.70 1.94 2.04 2.50 3.09 3.09 2.51 2.53 2.74 1.90 1.43 1.38 1.81 1.37 0.94 0.61 0.69 0.69 0.59 0.49 0.60 0.63 0.53 0.45 0.31 0.24 0.22 0.23 0.13 0.06 0.04 0.16 0.52 0.50 0.30 0.31 0.29 0.19 0.22
2.08 1.80 1.28 0.80 0.43 0.47 0.60 0.76 1.27 2.04 2.40 2.14 3.45 2.34 1.94 1.11 1.21 1.08 1.16 0.78 0.69 0.89 0.65 0.74 0.60 0.46 0.36 0.25 0.17 0.13 0.09 0.19 0.09 0.08 0.06 0.22 0.39 0.45 0.31 0.18 0.11 0.16 0.25
0.85 0.81 0.74 0.52 0.30 0.33 0.26 0.31 0.49 1.13 1.96 2.22 2.39 2.24 2.24 1.28 1.40 1.13 1.29 1.01 0.81 1.23 0.84 0.79 0.59 0.42 0.26 0.24 0.22 0.14 0.21 0.15 0.12 0.09 0.15 0.18 0.36 0.39 0.09 0.03 0.03 0.04 0.12
0.45 0.47 0.32 0.35 0.36 0.51 0.36 0.25 0.30 0.73 1.52 1.73 1.38 1.17 1.56 1.07 1.05 1.08 0.85 0.87 0.68 1.15 0.80 0.55 0.38 0.31 0.32 0.34 0.28 0.23 0.17 0.15 0.13 0.07 0.10 0.26 0.35 0.37 0.16 0.04 0.04 0.04 0.06
0.30 0.41 0.39 0.18 0.25 0.23 0.23 0.24 0.23 0.58 0.82 1.10 0.99 0.40 1.02 0.83 0.60 0.96 0.77 0.75 0.55 1.10 0.66 0.37 0.41 0.32 0.34 0.35 0.35 0.30 0.13 0.20 0.11 0.12 0.23 0.43 0.48 0.38 0.36 0.13 0.06 0.04 0.04
0.26 0.39 0.47 0.41 0.35 0.30 0.23 0.31 0.30 0.46 0.82 0.74 0.89 0.38 0.26 0.41 0.57 0.96 0.88 0.75 0.51 0.76 0.64 0.52 0.33 0.39 0.37 0.48 0.32 0.25 0.20 0.23 0.08 0.08 0.17 0.31 0.42 0.45 0.42 0.30 0.14 0.05 0.04
0.07 0.22 0.62 1.02 0.50 0.34 0.28 0.31 0.34 0.25 0.45 0.67 0.78 0.54 0.23 0.13 0.30 0.52 0.72 0.56 0.54 0.62 0.54 0.69 0.62 0.46 0.47 0.73 0.43 0.29 0.18 0.24 0.12 0.04 0.08 0.15 0.22 0.33 0.42 0.40 0.26 0.08 0.04
0.04 0.12 0.66 1.27 0.93 0.48 0.27 0.33 0.37 0.47 0.44 0.54 0.60 0.56 0.30 0.22 0.21 0.26 0.44 0.68 0.54 0.61 0.43 0.46 0.69 0.50 0.45 0.65 0.64 0.36 0.28 0.23 0.28 0.07 0.04 0.09 0.13 0.15 0.25 0.33 0.29 0.13 0.05
0.04 0.17 0.50 0.80 1.08 0.97 0.76 0.72 0.56 0.47 0.53 0.50 0.41 0.45 0.31 0.26 0.29 0.22 0.30 0.41 0.71 0.47 0.37 0.48 0.57 0.60 0.41 0.51 0.67 0.52 0.37 0.28 0.32 0.27 0.06 0.06 0.10 0.15 0.12 0.17 0.16 0.07 0.04
0.08 0.32 0.58 0.72 1.21 1.58 0.87 0.35 0.41 0.64 0.54 0.48 0.32 0.37 0.45 0.33 0.43 0.39 0.36 0.28 0.36 0.52 0.44 0.59 0.70 0.65 0.54 0.44 0.60 0.68 0.38 0.38 0.31 0.37 0.22 0.15 0.15 0.16 0.21 0.16 0.11 0.05 0.03
0.18 0.42 0.64 1.00 0.97 0.47 0.24 0.15 0.27 0.47 0.60 0.53 0.39 0.30 0.52 0.57 0.55 0.69 0.63 0.60 0.39 0.19 0.39 0.49 0.85 0.89 0.77 0.55 0.84 0.94 0.72 0.37 0.36 0.31 0.27 0.26 0.33 0.30 0.35 0.26 0.09 0.03 0.02
0.44 0.44 0.33 0.15 0.13 0.04 0.06 0.10 0.16 0.24 0.44 0.47 0.38 0.18 0.34 0.59 0.83 0.69 0.61 0.74 0.69 0.36 0.18 0.32 0.65 1.09 0.98 0.66 0.72 0.79 0.66 0.43 0.30 0.37 0.24 0.16 0.21 0.31 0.37 0.34 0.07 0.02 0.01
0.05 0.02 0.06 0.08 0.14 0.05 0.04 0.12 0.19 0.38 0.57 0.49 0.45 0.25 0.22 0.30 0.63 0.85 0.75 0.65 0.71 0.46 0.19 0.12 0.25 0.69 0.71 0.70 0.44 0.53 0.35 0.34 0.21 0.27 0.28 0.16 0.14 0.16 0.18 0.19 0.09 0.03 0.01
0.02 0.03 0.06 0.12 0.15 0.06 0.05 0.04 0.07 0.15 0.24 0.24 0.23 0.19 0.16 0.20 0.30 0.59 0.84 0.69 0.64 0.71 0.51 0.18 0.11 0.32 0.59 0.60 0.65 0.59 0.28 0.24 0.27 0.34 0.25 0.17 0.15 0.13 0.13 0.13 0.09 0.06 0.07
0.04 0.07 0.08 0.15 0.28 0.21 0.12 0.14 0.20 0.24 0.25 0.27 0.21 0.15 0.13 0.19 0.24 0.27 0.49 0.61 0.57 0.51 0.53 0.43 0.28 0.29 0.54 0.69 0.69 0.58 0.51 0.41 0.43 0.36 0.37 0.31 0.20 0.12 0.10 0.12 0.14 0.10 0.15
0.05 0.08 0.10 0.13 0.24 0.27 0.23 0.27 0.32 0.35 0.30 0.24 0.16 0.14 0.14 0.28 0.25 0.20 0.30 0.36 0.47 0.55 0.66 0.73 0.71 0.60 0.47 0.65 0.83 0.71 0.51 0.46 0.45 0.46 0.42 0.36 0.39 0.29 0.20 0.23 0.25 0.17 0.15

GFSSE_prec_precacc_123.txt.gz
Total_Precipitation_Accumulation
0.55 0.14 0.17 0.28 0.15 0.14 0.08 0.04 0.03 0.06 0.09 0.05 0.04 0.04 0.01 0.01 0.03 0.03 0.02 0.03 0.03 0.07 0.05 0.02 0.03 0.08 0.14 0.11 0.18 0.14 0.15 0.14 0.21 0.62 0.73 0.58 0.43 0.23 0.30 0.54 0.36 0.44 0.61
0.72 0.40 0.56 0.31 0.12 0.15 0.16 0.08 0.04 0.06 0.07 0.04 0.03 0.02 0.01 0.00 0.02 0.02 0.01 0.02 0.03 0.15 0.06 0.02 0.04 0.07 0.10 0.08 0.08 0.05 0.03 0.08 0.14 0.44 0.56 0.60 0.55 0.31 0.31 0.44 0.29 0.48 0.59
1.63 0.97 0.87 0.94 0.30 0.22 0.19 0.12 0.06 0.02 0.01 0.02 0.01 0.00 0.01 0.01 0.01 0.02 0.01 0.03 0.06 0.26 0.23 0.04 0.05 0.12 0.07 0.05 0.06 0.05 0.03 0.03 0.10 0.27 0.52 0.31 0.29 0.57 0.39 0.30 0.29 0.36 0.40
0.41 0.57 0.75 1.19 0.97 0.80 0.62 0.22 0.12 0.08 0.05 0.01 0.02 0.02 0.02 0.01 0.03 0.07 0.02 0.01 0.15 0.30 0.30 0.29 0.26 0.17 0.07 0.03 0.03 0.05 0.03 0.04 0.10 0.19 0.52 0.88 0.37 0.71 0.47 0.27 0.27 0.29 0.41
0.35 0.31 0.76 1.18 1.33 0.83 0.99 0.67 0.43 0.38 0.16 0.07 0.12 0.05 0.03 0.05 0.19 0.27 0.22 0.21 0.38 0.44 0.42 0.44 0.41 0.29 0.08 0.00 0.00 0.01 0.03 0.08 0.07 0.13 0.45 0.97 0.74 1.05 0.55 0.41 0.33 0.24 0.32
1.14 0.91 1.64 2.05 1.48 1.03 0.94 1.15 2.03 1.84 1.26 0.97 0.62 0.39 0.21 0.37 0.50 0.49 0.46 0.43 0.48 0.56 0.40 0.38 0.43 0.23 0.02 0.00 0.00 0.00 0.03 0.06 0.22 0.16 0.31 1.20 1.12 1.43 1.44 0.60 0.39 0.33 0.31
2.76 2.23 2.19 3.00 2.30 1.62 1.11 1.36 2.02 3.37 3.89 3.34 2.31 1.32 1.53 1.73 1.40 1.11 0.70 0.56 0.51 0.54 0.54 0.45 0.32 0.20 0.07 0.03 0.11 0.09 0.04 0.18 0.35 0.61 0.54 1.23 2.40 1.72 1.69 1.21 0.43 0.28 0.26
5.81 6.52 4.51 4.60 5.14 3.94 2.54 1.24 1.45 2.05 3.30 3.37 3.48 3.31 3.14 2.51 1.60 1.23 0.75 0.58 0.54 0.52 0.45 0.48 0.32 0.29 0.17 0.27 0.25 0.24 0.22 0.21 0.27 0.51 0.77 0.75 2.09 2.62 1.80 0.90 0.47 0.26 0.16
6.86 10.03 10.33 6.89 6.24 5.55 6.20 3.91 1.58 1.50 1.65 2.05 2.18 2.17 2.52 2.89 1.96 1.43 0.90 0.66 0.69 0.71 0.38 0.34 0.29 0.39 0.57 0.53 0.23 0.26 0.29 0.31 0.25 0.72 1.15 0.60 0.69 1.75 3.76 1.09 0.48 0.28 0.17
7.50 6.57 6.82 5.47 4.75 4.34 4.46 5.06 3.46 2.30 1.97 1.75 1.69 1.58 1.51 2.07 1.98 1.37 0.86 0.64 0.74 0.68 0.48 0.39 0.48 0.62 0.57 0.53 0.54 0.46 0.35 0.26 0.08 0.13 0.48 0.40 0.60 0.35 0.63 0.73 0.51 0.37 0.30
3.50 3.96 3.54 2.44 1.70 1.94 2.04 2.50 3.09 3.09 2.51 2.53 2.74 1.90 1.43 1.38 1.81 1.37 0.94 0.61 0.69 0.69 0.59 0.49 0.60 0.63 0.53 0.45 0.31 0.24 0.23 0.23 0.13 0.08 0.07 0.17 0.54 0.53 0.59 0.41 0.31 0.23 0.26
2.08 1.80 1.28 0.80 0.43 0.47 0.60 0.76 1.27 2.04 2.40 2.14 3.45 2.34 1.94 1.11 1.21 1.08 1.16 0.78 0.69 0.89 0.65 0.74 0.60 0.46 0.36 0.25 0.17 0.13 0.09 0.19 0.09 0.11 0.11 0.31 0.48 0.62 0.41 0.19 0.12 0.17 0.26
0.85 0.81 0.74 0.52 0.30 0.33 0.26 0.31 0.49 1.13 1.96 2.22 2.39 2.24 2.24 1.28 1.40 1.13 1.29 1.01 0.81 1.23 0.84 0.79 0.59 0.42 0.26 0.24 0.22 0.14 0.21 0.15 0.12 0.09 0.19 0.31 0.46 0.64 0.33 0.16 0.05 0.05 0.12
0.45 0.47 0.32 0.35 0.36 0.51 0.36 0.25 0.30 0.73 1.52 1.73 1.38 1.17 1.56 1.07 1.05 1.08 0.85 0.87 0.68 1.15 0.80 0.55 0.38 0.31 0.32 0.34 0.28 0.23 0.17 0.15 0.13 0.07 0.11 0.31 0.48 0.56 0.38 0.22 0.10 0.05 0.06
0.30 0.41 0.39 0.18 0.25 0.23 0.23 0.24 0.23 0.58 0.82 1.10 0.99 0.40 1.02 0.83 0.60 0.96 0.77 0.75 0.55 1.10 0.66 0.37 0.41 0.32 0.34 0.35 0.35 0.30 0.13 0.20 0.11 0.12 0.23 0.44 0.55 0.52 0.64 0.54 0.35 0.11 0.04
0.26 0.39 0.47 0.41 0.35 0.30 0.23 0.31 0.30 0.46 0.82 0.74 0.89 0.38 0.26 0.41 0.57 0.96 0.88 0.75 0.51 0.76 0.64 0.52 0.33 0.39 0.37 0.48 0.32 0.25 0.20 0.23 0.08 0.08 0.17 0.31 0.43 0.53 0.61 0.67 0.63 0.25 0.05
0.07 0.22 0.62 1.02 0.50 0.34 0.28 0.31 0.34 0.25 0.45 0.67 0.78 0.54 0.23 0.13 0.30 0.52 0.72 0.56 0.54 0.62 0.54 0.69 0.62 0.46 0.47 0.73 0.43 0.29 0.18 0.24 0.12 0.04 0.08 0.15 0.22 0.35 0.50 0.63 0.51 0.31 0.12
0.04 0.12 0.66 1.27 0.93 0.48 0.27 0.33 0.37 0.47 0.44 0.54 0.60 0.56 0.30 0.22 0.22 0.27 0.44 0.68 0.54 0.61 0.43 0.46 0.69 0.50 0.45 0.65 0.64 0.36 0.28 0.24 0.28 0.07 0.04 0.09 0.13 0.16 0.28 0.38 0.46 0.38 0.28
0.04 0.17 0.50 0.80 1.08 0.97 0.76 0.72 0.57 0.48 0.53 0.50 0.41 0.45 0.31 0.26 0.29 0.22 0.30 0.41 0.71 0.47 0.37 0.48 0.57 0.60 0.41 0.51 0.67 0.52 0.37 0.28 0.32 0.27 0.06 0.06 0.10 0.15 0.15 0.23 0.27 0.20 0.13
0.08 0.32 0.58 0.72 1.21 1.58 0.87 0.36 0.42 0.65 0.54 0.49 0.32 0.37 0.45 0.33 0.43 0.39 0.36 0.28 0.36 0.52 0.44 0.59 0.70 0.65 0.54 0.44 0.60 0.68 0.39 0.39 0.31 0.37 0.22 0.15 0.15 0.16 0.21 0.18 0.19 0.19 0.11
0.18 0.42 0.64 1.00 0.97 0.47 0.24 0.15 0.28 0.47 0.61 0.54 0.39 0.30 0.52 0.57 0.55 0.69 0.63 0.60 0.39 0.19 0.39 0.49 0.85 0.89 0.77 0.55 0.84 0.95 0.73 0.38 0.36 0.31 0.27 0.26 0.33 0.31 0.36 0.29 0.26 0.22 0.22
0.44 0.44 0.33 0.15 0.13 0.05 0.06 0.10 0.17 0.25 0.45 0.48 0.39 0.18 0.35 0.59 0.83 0.69 0.61 0.74 0.69 0.36 0.18 0.32 0.66 1.10 0.99 0.66 0.73 0.80 0.66 0.43 0.30 0.37 0.25 0.16 0.21 0.31 0.38 0.49 0.28 0.22 0.20
0.05 0.02 0.06 0.08 0.14 0.05 0.04 0.13 0.23 0.39 0.57 0.49 0.45 0.25 0.23 0.31 0.63 0.85 0.75 0.65 0.71 0.46 0.19 0.12 0.25 0.69 0.71 0.70 0.45 0.54 0.35 0.34 0.21 0.27 0.29 0.16 0.15 0.16 0.19 0.28 0.36 0.21 0.13
0.02 0.03 0.06 0.12 0.15 0.06 0.05 0.04 0.07 0.15 0.24 0.24 0.23 0.20 0.19 0.24 0.32 0.60 0.84 0.69 0.64 0.71 0.51 0.18 0.11 0.32 0.59 0.60 0.65 0.59 0.28 0.24 0.27 0.34 0.26 0.18 0.15 0.13 0.13 0.14 0.19 0.23 0.17
0.04 0.07 0.08 0.15 0.28 0.21 0.12 0.15 0.21 0.24 0.25 0.27 0.21 0.15 0.16 0.23 0.33 0.35 0.54 0.65 0.59 0.53 0.54 0.43 0.28 0.29 0.54 0.69 0.69 0.58 0.52 0.41 0.43 0.36 0.37 0.31 0.21 0.12 0.10 0.13 0.21 0.26 0.25
0.05 0.08 0.10 0.13 0.24 0.27 0.23 0.27 0.33 0.35 0.30 0.24 0.16 0.14 0.14 0.32 0.33 0.32 0.46 0.52 0.64 0.67 0.71 0.73 0.71 0.60 0.47 0.65 0.83 0.71 0.52 0.47 0.45 0.46 0.43 0.36 0.39 0.30 0.22 0.27 0.29 0.30 0.35